Huntsville, AL

12:58 AM CDT on March 28, 2017 (GMT -0500)
Huntsville International

Weather History for KHSV - February, 2012

Change the Weather History Date:

Saturday, February 25, 2012

  Actual Average Record
Temperature  
Mean Temperature 42 °F 48 °F  
Max Temperature 55 °F 59 °F 80 °F (1918)
Min Temperature 29 °F 38 °F 7 °F (1967)
Degree Days  
Heating Degree Days 23 17  
Month to date heating degree days 435 494  
Since 1 July heating degree days 2092 2404  
Cooling Degree Days 0 0  
Month to date cooling degree days 1 0  
Year to date cooling degree days 1 0  
Moisture  
Dew Point 22 °F    
Average Humidity 52    
Maximum Humidity 85    
Minimum Humidity 18    
Precipitation  
Precipitation 0.00 in 0.18 in 1.80 in (1934)
Month to date precipitation 3.36 4.31  
Year to date precipitation 11.15 9.20  
Snow  
Snow 0.00 in - - ()
Month to date snowfall T  
Since 1 July snowfall T  
Snow Depth 0.00 in    
Sea Level Pressure  
Sea Level Pressure 30.29 in    
Wind  
Wind Speed 7 mph (WNW)    
Max Wind Speed 24 mph    
Max Gust Speed 32 mph    
Visibility 10 miles    
Events      
T = Trace of Precipitation, MM = Missing Value Source: NWS Daily Summary

Daily Weather History Graph

Daily Weather History Graph

Search for Another Location

Airport or City:

Trip Planner

Search our weather history database for the weather conditions in past years. The results will help you decide how hot, cold, wet, or windy it might be!

Date:

Astronomy

Feb. 25, 2012 Rise Set
Actual Time 6:21 AM CST 5:39 PM CST
Civil Twilight 5:56 AM CST 6:04 PM CST
Nautical Twilight 5:27 AM CST 6:33 PM CST
Astronomical Twilight 4:57 AM CST 7:02 PM CST
Moon 7:57 AM CST (2/25) 9:26 PM CST (2/25)
Length of Visible Light 12h 08m
Length of Day
11h 17m
Waxing Crescent, 14% of the Moon is Illuminated
Feb 25
Waxing Crescent
Feb 29
First Quarter
Mar 8
Full
Mar 14
Last Quarter
Mar 22
New

Hourly Weather History & Observations

Time (CST) Temp. Windchill Dew Point Humidity Pressure Visibility Wind Dir Wind Speed Gust Speed Precip Events Conditions
12:53 AM 34.0 °F 31.0 °F 28.0 °F 79% 30.22 in 10.0 mi WSW 3.5 mph - N/A   Partly Cloudy
1:53 AM 35.1 °F - 28.0 °F 76% 30.24 in 10.0 mi Calm Calm - N/A   Partly Cloudy
2:53 AM 35.1 °F - 26.1 °F 70% 30.24 in 10.0 mi Calm Calm - N/A   Partly Cloudy
3:53 AM 33.1 °F - 27.0 °F 78% 30.25 in 10.0 mi Calm Calm - N/A   Partly Cloudy
4:53 AM 30.0 °F - 25.0 °F 82% 30.26 in 10.0 mi Calm Calm - N/A   Partly Cloudy
5:53 AM 28.9 °F 25.2 °F 25.0 °F 85% 30.27 in 10.0 mi SSE 3.5 mph - N/A   Partly Cloudy
6:53 AM 32.0 °F - 26.1 °F 79% 30.29 in 10.0 mi Calm Calm - N/A   Partly Cloudy
7:53 AM 39.9 °F 34.5 °F 28.0 °F 63% 30.30 in 10.0 mi West 8.1 mph - N/A   Partly Cloudy
8:53 AM 46.0 °F 41.9 °F 25.0 °F 44% 30.31 in 10.0 mi West 8.1 mph - N/A   Partly Cloudy
9:53 AM 50.0 °F - 24.1 °F 36% 30.32 in 10.0 mi WNW 16.1 mph 24.2 mph N/A   Partly Cloudy
10:53 AM 51.1 °F - 26.1 °F 38% 30.32 in 10.0 mi West 12.7 mph 18.4 mph N/A   Scattered Clouds
11:53 AM 51.8 °F - 24.8 °F 35% 30.31 in 10.0 mi WNW 18.4 mph 27.6 mph N/A   Scattered Clouds
12:53 PM 53.1 °F - 19.0 °F 26% 30.30 in 10.0 mi WNW 15.0 mph 26.5 mph N/A   Scattered Clouds
1:53 PM 54.0 °F - 12.9 °F 20% 30.28 in 10.0 mi WNW 17.3 mph 27.6 mph N/A   Scattered Clouds
2:53 PM 54.0 °F - 10.9 °F 18% 30.28 in 10.0 mi NW 20.7 mph 25.3 mph N/A   Scattered Clouds
3:53 PM 52.0 °F - 12.9 °F 21% 30.27 in 10.0 mi WNW 11.5 mph - N/A   Mostly Cloudy
4:53 PM 52.0 °F - 14.0 °F 22% 30.29 in 10.0 mi NNW 9.2 mph - N/A   Mostly Cloudy
5:53 PM 46.9 °F - 17.1 °F 30% 30.30 in 10.0 mi NNW 4.6 mph - N/A   Scattered Clouds
6:53 PM 45.0 °F 43.5 °F 17.1 °F 33% 30.31 in 10.0 mi NNW 3.5 mph - N/A   Partly Cloudy
7:53 PM 42.1 °F - 19.0 °F 40% 30.33 in 10.0 mi Calm Calm - N/A   Partly Cloudy
8:53 PM 41.0 °F 39.0 °F 17.1 °F 38% 30.32 in 10.0 mi NNE 3.5 mph - N/A   Scattered Clouds
9:53 PM 37.0 °F - 21.0 °F 52% 30.33 in 10.0 mi Calm Calm - N/A   Scattered Clouds
10:53 PM 36.0 °F - 21.0 °F 55% 30.33 in 10.0 mi Calm Calm - N/A   Mostly Cloudy
11:53 PM 37.0 °F - 24.1 °F 59% 30.33 in 10.0 mi Calm Calm - N/A   Mostly Cloudy